Regional Weather Roundup
Issued by NWS Newport/Morehead, NC

Current Version | Previous Version | Graphics & Text | Print | Product List | Glossary Off
Versions: 1 2 3 4 5 6 7 8 9 10 11 12 13 14 15 16 17 18 19 20 21 22 23 24 25 26 27 28 29 30 31 32 33 34 35 36 37 38 39 40 41 42 43 44 45 46 47 48 49 50

000
ASUS42 KMHX 250213
RWRMHX
WEATHER ROUNDUP FOR EASTERN NORTH CAROLINA
NATIONAL WEATHER SERVICE NEWPORT/MOREHEAD CITY NC
1000 PM EDT MON APR 24 2017

NOTE: "FAIR" INDICATES FEW OR NO CLOUDS BELOW 12,000 FEET
WITH NO SIGNIFICANT WEATHER AND/OR OBSTRUCTIONS TO VISIBILITY

NCZ015>017-031-032-045>047-102-103-250300-
NORTH COAST

CITY           SKY/WX    TMP DP  RH WIND       PRES   REMARKS
EDENTON        CLOUDY    70  62  74 E13G21    29.77F
ELIZABETH CITY CLOUDY    68  60  75 E16G22    29.80F
KITTY HAWK     NOT AVBL
MANTEO         PTCLDY    67  61  80 SE15G22   29.80S

$$

NCZ045>047-081-094-103-104-250300-
CENTRAL COAST

CITY           SKY/WX    TMP DP  RH WIND       PRES   REMARKS
FRISCO         CLOUDY    72  63  73 SE30G44   29.74F HAZE

$$

NCZ095-097-098-100-101-250300-
SOUTHERN COAST

CITY           SKY/WX    TMP DP  RH WIND       PRES   REMARKS
BEAUFORT       CLOUDY    72  67  84 SE15G28   29.67S
CEDAR ISLAND   NOT AVBL
JACKSONVILLE   RAIN      67  67 100 SE16G23   29.63R
PINEY ISLAND   CLOUDY   N/A N/A N/A SE17G24   29.68F
WILMINGTON     LGT RAIN  66  66 100 S3        29.64R


$$

NCZ011>013-027>030-043-044-078>080-089-090>093-098-250300-
COASTAL PLAIN

CITY           SKY/WX    TMP DP  RH WIND       PRES   REMARKS
AHOSKIE          N/A     62  61  97 N9        29.78F
CLINTON        LGT RAIN  65  65 100 CALM      29.65S
ELIZABETHTOWN  RAIN      59  59 100 CALM      29.62F
GOLDSBORO      LGT RAIN  65  65 100 E17       29.64F
GREENVILLE     RAIN      64  64 100 E13G22    29.73F
HAVELOCK       CLOUDY    71  65  81 SE17G25   29.67F
KENANSVILLE    RAIN      66  66 100 E3        29.64F FOG
KINSTON        LGT RAIN  64  64 100 E13       29.67F
NEW BERN       LGT RAIN  69  67  93 E9        29.68S
RICHLANDS      LGT RAIN  67  66  97 NE10      29.62F
ROCKY MOUNT    HVY RAIN  64  64 100 NE9       29.71F FOG
WASHINGTON     RAIN      64  64  97 E16G24    29.71F
WHITEVILLE     CLOUDY    61  60  97 CALM      29.63R

$$

AMZ130-135-150-152-154-156-158-170-250-252-270-ANZ085-086-088-633-658-670-250300-
MARINE OBSERVATIONS

STATION/POSITION TIME  TEMP    WIND        PRES    WAVE   SWELL
                       AIR SEA DIR/SP/G            HT/PER HT/PER
                 (UTC) (F)     (DEG/KT/KT) (MB)    (FT/S) (FT/S)
CHESAPEAKE LIGHT NOT AVBL
64 E VA BEACH    0150   60 54   80/ 12/ 12 1011.2    7/ 8   7/ 8
DUCK             0148   63 59   80/ 17/ 20 1008.8
2 E DUCK         0200      59                N/A     6/ 7   2/11
OREGON INLET     0148           90/ 13/ 18 1008.2
13E OREGON INLT  0148      57                N/A    10/ 8  10/ 8
HATTERAS CG      0148   72 67  120/ 19/ 27 1006.3
DIAMOND BUOY     0150   74 78  110/ 31/ 39 1005.8   14/10
CAPE LOOKOUT     0200   72     110/ 28/ 30 1004.2
BEAUFORT LAB     0148   71 65  130/ 17/ 25 1003.6
30 SE NEW RVR IN 0108   72     140/ 17/ 25 1003.7
30 SE NEW RVR IN 0143      71                N/A    14/10   5/11
27 SE WRIGHTSVLE 0108   66 72  170/ 12/ 16 1003.2
5 SE WRIGHTSVLE  0108   68 69  190/ 10/ 17 1003.7
225 S CAPE HAT   0150   74 75  220/ 19/ 25 1002.6   12/10  10/10
41 SE CHARLESTON 0150   72 72  230/ 12/ 16 1003.0    7/ 9   7/ 9

$$



USA.gov is the U.S. government's official web portal to all federal, state and local government web resources and services.